Regional Weather Roundup
Issued by NWS Kansas City/Pleasant Hill, MO

Home | Current Version | Previous Version | Text Only | Print | Product List | Glossary On
Versions: 1 2 3 4 5 6 7 8 9 10 11 12 13 14 15 16 17 18 19 20 21 22 23 24 25 26 27 28 29 30 31 32 33 34 35 36 37 38 39 40 41 42 43 44 45 46 47 48 49 50
000
ASUS43 KEAX 221310
RWREAX

WEATHER ROUNDUP FOR EASTERN KANSAS AND NORTHWEST MISSOURI
NATIONAL WEATHER SERVICE KANSAS CITY/PLEASANT HILL MO
800 AM CDT WED MAR 22 2017

KSZ040-057-103>105-MOZ028-029-037-043-221400-
...KANSAS CITY METROPOLITAN AREA...

CITY           SKY/WX    TMP DP  RH WIND       PRES   REMARKS
K.C. INTL      MOCLDY    36  22  56 E10       30.39R WCI  28
K.C. DOWNTOWN  CLOUDY    38  21  50 E12       30.39R WCI  30
LEES SUMMIT    CLEAR     38  22  52 E13       30.38R WCI  30
OLATHE - IXD   MOCLDY    38  22  52 NE7       30.38R WCI  33
OLATHE - OJC   MOCLDY    37  23  56 NE9       30.37R WCI  30
LAWRENCE       CLOUDY    37  24  59 NE5       30.38R WCI  33

$$

MOZ001>008-011>017-020>025-030>033-038>040-044>046-053-054-221400-
...NORTHERN AND CENTRAL MISSOURI...

CITY           SKY/WX    TMP DP  RH WIND       PRES   REMARKS
ST. JOSEPH     PTCLDY    36  21  54 E8        30.41R WCI  30
MOSBY          CLOUDY    36  21  55 E5        30.40R WCI  32
WARRENSBURG    PTCLDY    36  23  60 NE8       30.39R WCI  29
WHITEMAN AFB   MOCLDY    37  24  59 NE8       30.37R WCI  30
CLINTON        CLOUDY    39  25  56 NE10      30.36F WCI  32
SEDALIA        MOCLDY    38  23  55 NE9       30.39R WCI  31
WARSAW         NOT AVBL
CHILLICOTHE      N/A     35  20  54 E6        30.44R WCI  30
KIRKSVILLE     CLOUDY    33  26  75 E12       30.46R WCI  24

$$

MOZ041-047>049-056>058-063>065-088>090-097-221400-
...EASTERN AND SOUTHERN MISSOURI...

CITY           SKY/WX    TMP DP  RH WIND       PRES   REMARKS
ST. LOUIS INTL MOSUNNY   36  26  67 NE15      30.46R WCI  27
SPIRIT OF STL  MOSUNNY   36  27  69 E16       30.45R WCI  26
COLUMBIA       MOCLDY    37  27  67 E15       30.40R WCI  28
JEFFERSON CITY PTCLDY    41  26  55 E7        30.42R
ROLLA          PTCLDY    37  29  72 NE9       30.37R WCI  30
OSAGE BEACH    CLOUDY   N/A N/A N/A NE9       30.38R
SPRINGFIELD    CLOUDY    46  28  49 E14       30.30R
BRANSON        CLOUDY    45  45 100 E6        30.31R
JOPLIN         CLOUDY    47  29  49 E10G21    30.28R
WEST PLAINS    CLOUDY    43  31  62 NE9       30.32S

$$

IAZ060-094-KSZ022-034>040-054-083-096-NEZ052-066-093-221400-
...KANSAS...SOUTHEAST NEBRASKA AND IOWA...

CITY           SKY/WX    TMP DP  RH WIND       PRES   REMARKS
TOPEKA         CLOUDY    40  25  55 E12       30.36F WCI  33
MANHATTAN      CLOUDY    39  24  55 E14G22    30.29F WCI  31
EMPORIA        CLOUDY    41  25  53 E18       30.29F WCI  32
CHANUTE        CLOUDY    46  26  45 E16G24    30.30R
WICHITA        MOCLDY    46  24  42 E10G24    30.24R
OMAHA          LGTSLEET  34  17  50 E9        30.43F WCI  27
LINCOLN        MOCLDY    35  21  56 E13       30.40F WCI  26
FALLS CITY     CLOUDY    36  21  54 E8        30.40R WCI  30
LAMONI         CLOUDY    31  19  61 E9G16     30.44R WCI  23
DES MOINES     CLOUDY    30  18  60 E12       30.49R WCI  20

$$




USA.gov is the U.S. government's official web portal to all federal, state and local government web resources and services.